Hourly Weather Rudec Malyy

Today, 23 July, Friday

Time Temperature Precipitation Wind Pressure Humidity
00:00 +16°C° 0 mm 1 mps 750 mmHg 65%
01:00 +16°C° 0 mm 1 mps 750 mmHg 63%
02:00 +18°C° 0 mm 1 mps 750 mmHg 61%
03:00 +18°C° 0 mm 1 mps 750 mmHg 61%
04:00 +19°C° 0 mm 1 mps 750 mmHg 61%
05:00 +19°C° 0 mm 1 mps 749 mmHg 62%
06:00 +19°C° 0 mm 1 mps 749 mmHg 64%
07:00 +20°C° 0 mm 1 mps 749 mmHg 67%
08:00 +20°C° 0 mm 1 mps 749 mmHg 70%
09:00 +21°C° 0.1 mm 1 mps 749 mmHg 69%
10:00 +21°C° 0.1 mm 1 mps 750 mmHg 68%
11:00 +22°C° 0.1 mm 1 mps 750 mmHg 67%
12:00 +23°C° 0.1 mm 2 mps 749 mmHg 64%
13:00 +23°C° 0.1 mm 2 mps 749 mmHg 60%
14:00 +24°C° 0.1 mm 2 mps 749 mmHg 57%
15:00 +24°C° 0 mm 2 mps 749 mmHg 57%
16:00 +25°C° 0 mm 2 mps 749 mmHg 56%
17:00 +25°C° 0 mm 2 mps 748 mmHg 55%
18:00 +24°C° 0 mm 2 mps 748 mmHg 60%
19:00 +21°C° 0 mm 2 mps 748 mmHg 65%
20:00 +20°C° 0 mm 2 mps 748 mmHg 70%
21:00 +20°C° 0 mm 1 mps 748 mmHg 73%
22:00 +20°C° 0 mm 1 mps 748 mmHg 76%
23:00 +19°C° 0 mm 1 mps 749 mmHg 79%

Tomorrow, 24 July, Saturday

Time Temperature Precipitation Wind Pressure Humidity
00:00 +19°C° 0 mm 1 mps 749 mmHg 80%
01:00 +19°C° 0 mm 1 mps 749 mmHg 80%
02:00 +18°C° 0 mm 1 mps 749 mmHg 81%
03:00 +19°C° 0 mm 1 mps 749 mmHg 80%
04:00 +19°C° 0 mm 1 mps 749 mmHg 80%
05:00 +19°C° 0 mm 1 mps 749 mmHg 79%
06:00 +20°C° 0 mm 1 mps 749 mmHg 78%
07:00 +20°C° 0 mm 1 mps 749 mmHg 76%
08:00 +19°C° 0 mm 0 mps 749 mmHg 75%
09:00 +22°C° 0 mm 1 mps 749 mmHg 72%
10:00 +23°C° 0 mm 1 mps 749 mmHg 68%
11:00 +24°C° 0 mm 1 mps 749 mmHg 65%
12:00 +24°C° 0.1 mm 2 mps 749 mmHg 62%
13:00 +25°C° 0.1 mm 2 mps 749 mmHg 58%
14:00 +26°C° 0.1 mm 2 mps 749 mmHg 55%
15:00 +26°C° 0 mm 2 mps 749 mmHg 55%
16:00 +26°C° 0 mm 2 mps 749 mmHg 55%
17:00 +26°C° 0 mm 1 mps 749 mmHg 54%
18:00 +25°C° 0 mm 1 mps 749 mmHg 58%
19:00 +23°C° 0 mm 1 mps 749 mmHg 62%
20:00 +20°C° 0 mm 0 mps 749 mmHg 65%
21:00 +22°C° 0 mm 1 mps 749 mmHg 65%
22:00 +22°C° 0 mm 1 mps 749 mmHg 64%
23:00 +21°C° 0 mm 1 mps 749 mmHg 64%

Day after tomorrow, 25 July, Sunday

Time Temperature Precipitation Wind Pressure Humidity
00:00 +21°C° 0 mm 1 mps 750 mmHg 64%
01:00 +21°C° 0 mm 1 mps 750 mmHg 65%
02:00 +20°C° 0 mm 2 mps 750 mmHg 65%
03:00 +20°C° 0 mm 2 mps 750 mmHg 66%
04:00 +19°C° 0 mm 2 mps 750 mmHg 68%
05:00 +19°C° 0 mm 2 mps 750 mmHg 69%
06:00 +20°C° 0 mm 2 mps 750 mmHg 68%
07:00 +21°C° 0 mm 2 mps 750 mmHg 67%
08:00 +23°C° 0 mm 2 mps 750 mmHg 66%
09:00 +24°C° 0 mm 2 mps 750 mmHg 61%
10:00 +25°C° 0 mm 3 mps 750 mmHg 57%
11:00 +27°C° 0 mm 3 mps 750 mmHg 52%
12:00 +27°C° 0 mm 3 mps 750 mmHg 50%
13:00 +28°C° 0 mm 3 mps 750 mmHg 48%
14:00 +28°C° 0 mm 3 mps 750 mmHg 46%
15:00 +28°C° 0 mm 3 mps 750 mmHg 48%
16:00 +27°C° 0 mm 3 mps 750 mmHg 51%
17:00 +27°C° 0 mm 3 mps 750 mmHg 53%
18:00 +26°C° 0 mm 3 mps 750 mmHg 55%
19:00 +25°C° 0 mm 3 mps 750 mmHg 58%
20:00 +24°C° 0 mm 3 mps 750 mmHg 60%
21:00 +22°C° 0 mm 3 mps 750 mmHg 61%
22:00 +21°C° 0 mm 3 mps 750 mmHg 63%
23:00 +20°C° 0 mm 4 mps 750 mmHg 64%

26 July, Monday

Time Temperature Precipitation Wind Pressure Humidity
00:00 +19°C° 0 mm 3 mps 750 mmHg 67%
01:00 +19°C° 0 mm 3 mps 750 mmHg 71%
02:00 +18°C° 0 mm 3 mps 750 mmHg 74%
03:00 +18°C° 0 mm 3 mps 750 mmHg 75%
04:00 +17°C° 0 mm 3 mps 750 mmHg 77%
05:00 +17°C° 0 mm 3 mps 750 mmHg 78%
06:00 +19°C° 0 mm 4 mps 750 mmHg 75%
07:00 +20°C° 0 mm 4 mps 750 mmHg 72%
08:00 +21°C° 0 mm 5 mps 750 mmHg 70%
09:00 +23°C° 0 mm 5 mps 750 mmHg 66%
10:00 +25°C° 0 mm 5 mps 750 mmHg 63%
11:00 +26°C° 0 mm 6 mps 750 mmHg 60%
12:00 +26°C° 0 mm 6 mps 750 mmHg 59%
13:00 +27°C° 0 mm 6 mps 750 mmHg 58%
14:00 +27°C° 0 mm 6 mps 749 mmHg 57%
15:00 +26°C° 0.1 mm 6 mps 749 mmHg 60%
16:00 +26°C° 0.1 mm 5 mps 749 mmHg 63%
17:00 +25°C° 0.1 mm 5 mps 749 mmHg 67%
18:00 +23°C° 1.4 mm 5 mps 749 mmHg 74%
19:00 +22°C° 1.4 mm 4 mps 749 mmHg 81%
20:00 +21°C° 1.4 mm 4 mps 748 mmHg 89%
21:00 +20°C° 0.7 mm 4 mps 748 mmHg 90%
22:00 +20°C° 0.7 mm 4 mps 749 mmHg 91%
23:00 +19°C° 0.7 mm 4 mps 749 mmHg 93%

27 July, Tuesday

Time Temperature Precipitation Wind Pressure Humidity
00:00 +20°C° 0.2 mm 4 mps 748 mmHg 92%
01:00 +20°C° 0.2 mm 4 mps 748 mmHg 92%
02:00 +20°C° 0.2 mm 4 mps 748 mmHg 92%
03:00 +19°C° 0 mm 4 mps 748 mmHg 93%
04:00 +19°C° 0 mm 4 mps 748 mmHg 94%
05:00 +19°C° 0 mm 4 mps 748 mmHg 95%
06:00 +20°C° 0 mm 4 mps 748 mmHg 91%
07:00 +21°C° 0 mm 4 mps 747 mmHg 87%
08:00 +22°C° 0 mm 4 mps 747 mmHg 83%
09:00 +23°C° 0 mm 4 mps 747 mmHg 77%
10:00 +26°C° 0 mm 4 mps 747 mmHg 71%
11:00 +28°C° 0 mm 3 mps 747 mmHg 64%
12:00 +29°C° 0 mm 3 mps 747 mmHg 61%
13:00 +30°C° 0 mm 3 mps 746 mmHg 58%
14:00 +31°C° 0 mm 3 mps 746 mmHg 55%
15:00 +29°C° 2.2 mm 4 mps 746 mmHg 66%
16:00 +26°C° 2.2 mm 5 mps 745 mmHg 76%
17:00 +23°C° 2.2 mm 6 mps 745 mmHg 86%
18:00 +22°C° 1.1 mm 6 mps 746 mmHg 89%
19:00 +21°C° 1.1 mm 6 mps 746 mmHg 91%
20:00 +20°C° 1.1 mm 5 mps 746 mmHg 93%
21:00 +20°C° 0 mm 5 mps 747 mmHg 94%
22:00 +19°C° 0 mm 4 mps 747 mmHg 95%
23:00 +19°C° 0 mm 3 mps 748 mmHg 95%

28 July, Wednesday

Time Temperature Precipitation Wind Pressure Humidity
00:00 +18°C° 0 mm 3 mps 748 mmHg 95%
01:00 +18°C° 0 mm 3 mps 748 mmHg 94%
02:00 +18°C° 0 mm 2 mps 747 mmHg 94%
03:00 +18°C° 0 mm 2 mps 747 mmHg 94%
04:00 +18°C° 0 mm 2 mps 747 mmHg 94%
05:00 +18°C° 0 mm 2 mps 748 mmHg 94%
06:00 +19°C° 0 mm 3 mps 748 mmHg 89%
07:00 +21°C° 0 mm 3 mps 748 mmHg 84%
08:00 +22°C° 0 mm 3 mps 748 mmHg 79%
09:00 +25°C° 0 mm 3 mps 748 mmHg 73%
10:00 +27°C° 0 mm 2 mps 748 mmHg 66%
11:00 +28°C° 0 mm 2 mps 748 mmHg 59%
12:00 +29°C° 0 mm 2 mps 748 mmHg 55%
13:00 +30°C° 0 mm 2 mps 748 mmHg 51%
14:00 +31°C° 0 mm 2 mps 747 mmHg 48%
15:00 +30°C° 0.1 mm 2 mps 747 mmHg 52%
16:00 +29°C° 0.1 mm 2 mps 747 mmHg 57%
17:00 +28°C° 0.1 mm 3 mps 747 mmHg 61%
18:00 +26°C° 1.1 mm 3 mps 747 mmHg 72%
19:00 +24°C° 1.1 mm 2 mps 747 mmHg 84%
20:00 +20°C° 1.1 mm 2 mps 747 mmHg 95%
21:00 +20°C° 0.4 mm 2 mps 748 mmHg 95%
22:00 +20°C° 0.4 mm 2 mps 748 mmHg 96%
23:00 +20°C° 0.4 mm 2 mps 748 mmHg 96%
Show more

We Need Your Consent

Meteoprog and our Service Providers may store and access personal data such as cookies, device identifiers or other similar technologies on your device and process such data to personalise content and ads, as well as provide social media features and to analyse the traffic.

  • Store and/or access information on your device

    Cookies, device identifiers or other information can be stored or accessed on your device for the purposes indicated above.

  • Personalised ads and content, ad and content measurement, audience insights, and products development

    Ads and content can be personalised based on a profile. More data can be added to better personalise ads and content. Ad and content performance can be measured. Insights about the audience who saw the ads and content can be derived. Such data can be used to develop or improve user’s experience, systems and software.

By clicking ‘I Agree’ you will allow the use of indicated cookies, device identifiers, web beacons or other similar technologies. Your settings can be changed in the browser on your device.

For certain purposes, legitimate interests may be relied on, rather than consent. You can read more about this in our Privacy and Cookie Policy.